Regional Weather Roundup
Issued by NWS Austin/San Antonio, TX

Home | Current Version | Previous Version | Text Only | Print | Product List | Glossary On
Versions: 1 2 3 4 5 6 7 8 9 10 11 12 13 14 15 16 17 18 19 20 21 22 23 24 25 26 27 28 29 30 31 32 33 34 35 36 37 38 39 40 41 42 43 44 45 46 47 48 49 50
000
ASUS44 KEWX 230411
RWREWX
SOUTH TEXAS REGIONAL WEATHER ROUNDUP
NATIONAL WEATHER SERVICE AUSTIN/SAN ANTONIO TX
1100 PM CDT TUE AUG 22 2017

NOTE: "FAIR" INDICATED FEW OR NO CLOUDS BELOW 12,000 FEET WITH NO
SIGNIFICANT WEATHER AND/OR OBSTRUCTIONS TO VISIBILITY.

* - THESE STATIONS ARE NOT NWS OR FAA STATIONS...AND ARE NOT SUBJECT
    TO NWS AND FAA QUALITY CONTROL.

TXZ171-172-183>190-230500-
TEXAS HILL COUNTRY AND EDWARDS PLATEAU

CITY           SKY/WX    TMP DP  RH WIND       PRES   REMARKS
JUNCTION       CLEAR     85  63  47 S5        30.05R
*LLANO         CLEAR     79  66  65 CALM      30.04R
BURNET         CLEAR     83  63  50 NE3       30.04R
*HORSESHOE BAY CLEAR     78  62  58 CALM      30.01R
*KERRVILLE     CLEAR     76  68  75 SE5       30.06R
*FREDERICKSBRG CLEAR     75  64  66 CALM      30.05S
*ROCKSPRINGS   NOT AVBL
*BOERNE STAGE  CLEAR     81  66  61 S8        30.06R
*CASTROVILLE   CLEAR     83  66  56 SE7       30.03R
HONDO          CLEAR     85  68  56 SE12      30.01R
*UVALDE        CLEAR     84  67  55 CALM      30.01R
DEL RIO        CLEAR     89  62  40 E8        29.98R
LAUGHLIN AFB   MOCLDY    86  62  44 E8        29.99R
CARRIZO SPRGS  CLEAR     88  66  48 SE14      29.97R HX  90
*EAGLE PASS    CLEAR     84  61  45 E7        29.97R
$$

TXZ173-191>194-202-209-217>225-228-230500-
CENTRAL AND SOUTH CENTRAL TEXAS

CITY           SKY/WX    TMP DP  RH WIND       PRES   REMARKS
GEORGETOWN     CLEAR     85  66  53 S7        30.02R
AUSTIN/BERGSTM CLEAR     85  71  63 S9        29.99R HX  90
AUSTIN/MABRY   CLEAR     87  69  54 S7        30.01R HX  91
*AUSTIN/EXEC   CLEAR     84  68  58 S5        30.01R
*LAGO VISTA    PTCLDY    86  66  51 S7        30.03R
SAN MARCOS     CLEAR     84  70  62 S7        30.02R
NEW BRAUNFELS  CLEAR     82  69  64 S8        30.00R
RANDOLPH AFB   CLEAR     82  69  64 S9        30.02R
PT SAN ANTONIO CLEAR     83  69  62 SE10      30.00R
SAN ANTONIO    PTCLDY    84  68  58 SE10      30.02R
STINSON FIELD  CLEAR     84  69  60 SE6       29.99R
*LA GRANGE     CLEAR     84  73  68 S5        29.99R HX  90
*GIDDINGS      CLEAR     84  70  63 S7        30.01R
*GONZALES      CLEAR     83  71  68 S7        30.00R
$$

TXZ163>164-176>182-195>201-210>213-226-227-235-230500-
SOUTHEAST TEXAS

CITY           SKY/WX    TMP DP  RH WIND       PRES   REMARKS
COLLEGE STN    CLEAR     84  72  67 S8        29.99R
*BRYAN         CLEAR     84  71  63 S8        30.00R
*CALDWELL      NOT AVBL
*CROCKETT      CLEAR     81  70  69 CALM      30.01F
*BRENHAM       CLEAR     84  69  61 S6        30.01R
HUNTSVILLE     CLEAR     84  72  67 S7        29.99S
CONROE         CLEAR     81  74  79 S7        30.00S
HOUSTON BUSH   MOCLDY    84  73  69 SW5       29.99S HX  90
HOUSTON HOBBY  PTCLDY    83  73  72 S5        29.98F
*HOUSTON SW AP CLEAR     75  73  92 CALM      29.99F
PEARLAND       CLEAR     83  73  72 CALM      29.99F
HOUSTON HOOKS  CLEAR     83  72  69 S3        29.99S
ELLINGTON FLD  PTCLDY    84  75  74 SE3       30.00R HX  92
SUGAR LAND     CLEAR     79  74  84 CALM      29.99S
*HOUSTON EXEC  MOCLDY    77  73  88 S5        30.00F
*CLEVELAND MUN CLEAR     77  75  93 CALM      30.00S
*WHARTON       CLEAR     76  70  81 CALM      30.00S
*COLUMBUS      FAIR      80  68  67 CALM      30.01R
*EAGLE LAKE    CLEAR     81  74  81 S5        29.99S
$$

TXZ214>216-236>238-230500-
THE UPPER TEXAS COAST

CITY           SKY/WX    TMP DP  RH WIND       PRES   REMARKS
*ORANGE        PTCLDY    78  77  97 CALM      30.01R
PORT ARTHUR    PTCLDY    78  76  93 CALM      29.98S
GALVESTON      CLEAR     84  75  74 S7        29.99S HX  92
ANGLETON       CLEAR     78  75  90 CALM      29.99S
*BAY CITY      CLEAR     77  75  91 CALM      29.98S
PALACIOS       CLEAR     78  75  90 SE7       29.98S
$$

TXZ229>234-239>247-230500-
TEXAS COASTAL BEND AND RIO GRANDE PLAINS

CITY           SKY/WX    TMP DP  RH WIND       PRES   REMARKS
VICTORIA       CLEAR     79  73  82 S7        29.99S
*BEEVILLE      CLEAR     77  77 100 SE5       29.99S
ROCKPORT       CLEAR     84  75  74 SE9       29.98R HX  92
*PORT ARANSAS  CLEAR     83  76  78 SE8       29.98S HX  91
*PORT LAVACA   CLEAR     78  73  83 CALM      29.99S
*INGLESIDE     CLEAR     83  76  80 MISG      29.98R HX  90
CORPUS CHRISTI PTCLDY    81  76  84 SE5       29.98R
CORPUS NAS     PTCLDY    84  77  79 SE12      29.98R HX  94
*ROBSTOWN      CLEAR     83  75  76 SE6       29.99R HX  90
ALICE          CLEAR     79  72  79 SE3       29.98R
KINGSVILLE NAS PTCLDY    79  77  94 E5        29.98R
COTULLA        CLEAR     87  67  51 SE14      29.99R HX  90
*FAITH RANCH   CLEAR     88  68  51 SE16G22   29.99R HX  91
LAREDO         CLEAR     87  69  54 SE13      29.99R HX  91
$$

TXZ248>255-230500-
DEEP SOUTH TEXAS

CITY           SKY/WX    TMP DP  RH WIND       PRES   REMARKS
BROWNSVILLE    CLEAR     81  77  88 E5        29.98R
PORT ISABEL    CLEAR     84  76  76 E7        29.97R HX  93
*SOUTH PADRE   NOT AVBL
HARLINGEN      CLEAR     80  75  84 SE6       29.97R
*HEBBRONVILLE  CLEAR     80  69  67 CALM      30.02R
MCALLEN        CLEAR     85  73  67 E10       29.98R HX  91
*WESLACO       CLEAR     82  73  73 SE5       29.97S
FALFURRIAS     CLEAR     80  73  81 CALM      29.98S
EDINBURG       CLEAR     83  73  71 E6        29.98S
*ZAPATA        CLEAR     86  66  51 SE8       29.98R
$$

TXZ213>215-236>238-242>244-246-247-251-254-255-230500-
CMAN STATIONS

STATION/POSITION TIME  TEMP    WIND        PRES    WAVE
                       AIR SEA DIR/SP/G            HT/PER
                 (UTC) (F)     (DEG/KT/KT) (MB)    (FT/S)
SABINE PASS      0336   84 90  170/  4/  5 1016.9
SEA RIM ST PARK  0300   85     160/  5/  7 1015.9
NORTH JETTY/GLS  0348          170/  8/  9   N/A
EAGLE POINT      0348          180/ 10/ 11   N/A
MORGANS POINT    0336   86 88  160/  4/  7 1015.2
MISSION/ARANSAS  0300          140/ 12     1015.0
PORT O`CONNOR    0336   84     140/ 11/ 12 1014.8
PORT ARANSAS     0300   84 85  120/ 12/ 13 1015.1
MALAQUITE BEACH  0336   84 88  110/  8/ 10 1014.5
BAFFIN BAY       0336   83 88              1015.1
PORT ISABEL      0336   83 85              1015.0
$$




USA.gov is the U.S. government's official web portal to all federal, state and local government web resources and services.